CW7986 Weather Reports


Display with metric or nautical units.
time (UTC)temp
F
wind
direction
speed
MPH
gust
MPH
rain 1hr
in
rain 24hr
in
rain mn
in
humidity
%
barometer
mb
20260831013004 77 86 2.0 4.0 0.00 0.03 0.03 87 1015.3
20260831012503 77 87 2.0 4.0 0.00 0.03 0.03 87 1015.3
20260831012003 77 74 2.0 4.0 0.00 0.03 0.03 87 1015.3
20260831011504 77 71 2.0 4.0 0.00 0.03 0.03 86 1015.3
20260831011004 77 76 1.0 5.0 0.00 0.03 0.03 86 1015.3
20260831010504 77 77 1.0 5.0 0.00 0.03 0.03 86 1015.3
20260831010003 77 81 1.0 5.0 0.00 0.03 0.03 86 1015.3
20260831005504 78 93 2.0 5.0 0.00 0.03 0.03 86 1015.3
20260831005003 78 91 1.0 4.0 0.00 0.03 0.03 86 1015.3
20260831004504 78 83 2.0 5.0 0.00 0.03 0.03 86 1015.2
20260831004003 78 87 1.0 5.0 0.00 0.03 0.03 86 1015.1
20260831003525 78 87 1.0 4.0 0.00 0.03 0.03 86 1015.0
20260831003003 78 81 1.0 3.0 0.00 0.03 0.03 85 1015.0
20260831002504 78 79 1.0 3.0 0.00 0.03 0.03 85 1015.0
20260831002025 78 86 1.0 3.0 0.00 0.03 0.03 85 1014.9
20260831001503 78 91 1.0 3.0 0.00 0.03 0.03 85 1014.9
20260831001004 78 93 1.0 3.0 0.00 0.03 0.03 85 1014.8
20260831000503 78 93 1.0 4.0 0.00 0.03 0.03 85 1014.8
20260831000004 78 92 1.0 4.0 0.00 0.03 0.03 85 1014.8
20260830235524 78 81 1.0 3.0 0.00 0.03 0.03 84 1014.8
20260830235003 78 65 1.0 4.0 0.00 0.03 0.03 85 1014.8
20260830234503 78 61 1.0 4.0 0.00 0.03 0.03 85 1014.9
20260830234003 78 66 1.0 3.0 0.00 0.03 0.03 85 1014.9
20260830233524 78 79 1.0 3.0 0.00 0.04 0.03 85 1014.9
20260830233003 78 104 1.0 3.0 0.00 0.04 0.03 85 1014.8
20260830232503 78 123 1.0 5.0 0.00 0.04 0.03 85 1014.8
20260830232003 78 116 2.0 5.0 0.00 0.04 0.03 85 1014.8
20260830231503 78 116 1.0 4.0 0.00 0.04 0.03 85 1014.6
20260830231003 78 108 1.0 4.0 0.00 0.04 0.03 85 1014.5
20260830230503 78 105 2.0 5.0 0.00 0.04 0.03 85 1014.4
20260830230004 78 122 2.0 5.0 0.00 0.04 0.03 85 1014.3
20260830225504 78 125 2.0 5.0 0.00 0.04 0.03 84 1014.3
20260830225004 78 130 2.0 5.0 0.00 0.04 0.03 84 1014.3
20260830224504 78 133 2.0 5.0 0.00 0.04 0.03 84 1014.3
20260830224025 78 127 3.0 5.0 0.00 0.04 0.03 84 1014.3
20260830223503 78 116 1.0 5.0 0.00 0.04 0.03 84 1014.3
20260830223003 78 109 0.0 4.0 0.00 0.04 0.03 84 1014.3
20260830222503 78 149 0.0 2.0 0.00 0.04 0.03 84 1014.3
20260830222004 78 86 1.0 3.0 0.00 0.04 0.03 84 1014.3
20260830221504 79 78 1.0 4.0 0.00 0.05 0.03 84 1014.3
20260830221024 79 80 2.0 4.0 0.00 0.05 0.03 84 1014.2
20260830220503 79 85 2.0 4.0 0.00 0.06 0.03 84 1014.2
20260830220004 79 82 2.0 4.0 0.00 0.06 0.03 84 1014.2
20260830215504 79 71 2.0 3.0 0.00 0.07 0.03 83 1014.2
20260830215003 79 70 2.0 4.0 0.00 0.07 0.03 83 1014.2
20260830214525 80 71 2.0 4.0 0.00 0.07 0.03 82 1014.2
20260830214004 80 73 1.0 6.0 0.00 0.07 0.03 82 1014.3
20260830213504 80 95 2.0 6.0 0.00 0.07 0.03 82 1014.5
20260830213003 80 120 3.0 5.0 0.00 0.07 0.03 81 1014.5
20260830212503 80 133 3.0 7.0 0.00 0.07 0.03 80 1014.4
20260830212003 80 129 3.0 7.0 0.00 0.07 0.03 80 1014.4
20260830211504 80 117 3.0 6.0 0.00 0.08 0.03 80 1014.6
20260830211003 80 119 3.0 7.0 0.00 0.08 0.03 80 1014.7
20260830210525 80 126 4.0 11.0 0.00 0.08 0.03 79 1014.8
20260830210025 80 127 5.0 11.0 0.00 0.08 0.03 79 1014.8
20260830205503 81 120 4.0 11.0 0.00 0.08 0.03 79 1014.7
20260830205003 81 111 3.0 10.0 0.00 0.08 0.03 79 1014.8
20260830204503 82 107 3.0 6.0 0.00 0.08 0.03 79 1014.8
20260830204004 82 94 3.0 10.0 0.00 0.08 0.03 79 1014.8
20260830203504 82 83 3.0 10.0 0.00 0.08 0.03 79 1014.8
20260830203024 83 82 2.0 6.0 0.01 0.08 0.03 79 1014.8
20260830202526 84 90 2.0 10.0 0.01 0.08 0.03 79 1014.5
20260830202024 84 95 3.0 10.0 0.01 0.08 0.03 79 1014.3
20260830201504 84 102 3.0 9.0 0.03 0.08 0.03 79 1014.4
20260830201003 85 114 3.0 9.0 0.03 0.08 0.03 82 1014.7
20260830200524 86 134 3.0 7.0 0.03 0.08 0.03 83 1014.8
20260830200004 84 149 3.0 7.0 0.03 0.08 0.03 82 1014.8
20260830195525 85 166 2.0 6.0 0.03 0.08 0.03 83 1014.5
20260830195003 84 180 1.0 5.0 0.03 0.08 0.03 84 1014.4
20260830194503 84 176 1.0 4.0 0.03 0.08 0.03 84 1014.7
20260830194004 83 170 2.0 5.0 0.03 0.08 0.03 83 1014.8
20260830193504 83 171 2.0 7.0 0.03 0.08 0.03 82 1014.8
20260830193025 83 165 2.0 7.0 0.02 0.07 0.02 81 1014.6
20260830192504 83 149 4.0 9.0 0.02 0.07 0.02 78 1014.5
20260830192025 85 154 4.0 9.0 0.02 0.07 0.02 74 1014.7
20260830191504 90 175 3.0 8.0 0.00 0.05 0.00 70 1014.8
20260830191004 91 232 2.0 7.0 0.00 0.05 0.00 65 1014.9
20260830190504 93 241 2.0 7.0 0.00 0.05 0.00 64 1014.8
20260830190004 92 261 3.0 12.0 0.00 0.05 0.00 66 1014.8
20260830185504 91 262 3.0 12.0 0.00 0.05 0.00 65 1014.8
20260830185004 91 259 3.0 11.0 0.00 0.05 0.00 68 1014.8
20260830184504 91 262 4.0 11.0 0.00 0.05 0.00 67 1014.8
20260830184003 90 267 5.0 12.0 0.00 0.05 0.00 68 1014.9
20260830183525 90 267 5.0 12.0 0.00 0.05 0.00 67 1015.0
20260830183003 90 262 4.0 11.0 0.00 0.05 0.00 68 1014.9
20260830182504 90 261 3.0 11.0 0.00 0.05 0.00 68 1015.1
20260830182003 90 261 3.0 7.0 0.00 0.05 0.00 68 1015.1
20260830181525 90 262 3.0 7.0 0.00 0.05 0.00 68 1015.1
20260830181004 91 270 3.0 10.0 0.00 0.05 0.00 68 1015.2
20260830180525 89 273 5.0 11.0 0.00 0.05 0.00 70 1015.3
20260830180004 88 272 5.0 11.0 0.00 0.05 0.00 70 1015.3
20260830175524 89 266 4.0 10.0 0.00 0.05 0.00 69 1015.3
20260830175003 89 270 5.0 11.0 0.00 0.05 0.00 69 1015.3
20260830174503 90 273 4.0 11.0 0.00 0.05 0.00 67 1015.6
20260830174003 90 245 3.0 9.0 0.00 0.05 0.00 70 1015.7
20260830173503 90 206 2.0 9.0 0.00 0.05 0.00 69 1015.8
20260830173003 90 230 2.0 7.0 0.00 0.05 0.00 68 1015.8
20260830172503 89 254 3.0 6.0 0.00 0.05 0.00 70 1015.8
20260830172024 89 267 4.0 11.0 0.00 0.05 0.00 68 1015.8
20260830171503 88 271 5.0 11.0 0.00 0.05 0.00 72 1015.8
20260830171024 88 270 3.0 10.0 0.00 0.05 0.00 71 1015.8
20260830170503 88 269 2.0 10.0 0.00 0.05 0.00 70 1015.7
20260830170004 88 266 2.0 6.0 0.00 0.05 0.00 70 1015.8
20260830165504 88 251 2.0 6.0 0.00 0.05 0.00 69 1015.8
20260830165003 90 266 3.0 8.0 0.00 0.05 0.00 70 1015.8
20260830164524 88 260 3.0 8.0 0.00 0.05 0.00 69 1015.9
20260830164004 91 163 2.0 5.0 0.00 0.05 0.00 64 1016.0
20260830163503 93 131 2.0 7.0 0.00 0.05 0.00 58 1016.1
20260830163024 92 159 3.0 10.0 0.00 0.05 0.00 57 1016.1
20260830162503 90 154 3.0 10.0 0.00 0.05 0.00 64 1016.1
20260830162003 91 140 2.0 5.0 0.00 0.05 0.00 63 1016.2
20260830161504 90 147 3.0 6.0 0.00 0.05 0.00 64 1016.3
20260830161004 92 135 3.0 7.0 0.00 0.05 0.00 62 1016.3
20260830160504 93 139 3.0 7.0 0.00 0.05 0.00 59 1016.3
20260830160004 90 144 3.0 7.0 0.00 0.05 0.00 64 1016.2
20260830155503 92 121 3.0 7.0 0.00 0.05 0.00 61 1016.3
20260830155024 93 122 3.0 10.0 0.00 0.05 0.00 61 1016.3
20260830154504 92 132 4.0 10.0 0.00 0.05 0.00 63 1016.4
20260830154003 92 130 3.0 7.0 0.00 0.05 0.00 63 1016.4
20260830153503 90 149 3.0 7.0 0.00 0.05 0.00 65 1016.4
20260830153004 88 158 3.0 7.0 0.00 0.05 0.00 67 1016.3
20260830152503 90 135 3.0 7.0 0.00 0.05 0.00 64 1016.3
20260830152004 92 108 2.0 5.0 0.00 0.05 0.00 65 1016.4
20260830151504 90 131 2.0 7.0 0.00 0.05 0.00 68 1016.4
20260830151003 90 125 3.0 7.0 0.00 0.05 0.00 68 1016.4
20260830150524 90 116 3.0 7.0 0.00 0.05 0.00 67 1016.5
20260830150003 89 123 3.0 7.0 0.00 0.05 0.00 69 1016.5
20260830145503 88 141 3.0 9.0 0.00 0.05 0.00 73 1016.4
20260830145024 88 139 3.0 9.0 0.00 0.05 0.00 72 1016.4
20260830144503 88 127 3.0 9.0 0.00 0.05 0.00 71 1016.4
20260830144004 89 121 3.0 7.0 0.00 0.05 0.00 71 1016.5
20260830143503 87 122 3.0 7.0 0.00 0.05 0.00 74 1016.6
20260830143004 87 119 3.0 7.0 0.00 0.05 0.00 74 1016.6
20260830142504 87 121 3.0 7.0 0.00 0.05 0.00 75 1016.6
20260830142004 86 129 4.0 12.0 0.00 0.05 0.00 76 1016.6
20260830141503 86 128 3.0 12.0 0.00 0.05 0.00 75 1016.6
20260830141003 86 113 2.0 9.0 0.00 0.05 0.00 75 1016.6
20260830140503 86 115 2.0 7.0 0.00 0.05 0.00 76 1016.6
20260830140005 86 126 2.0 6.0 0.00 0.05 0.00 77 1016.7
20260830135504 86 115 2.0 6.0 0.00 0.05 0.00 76 1016.7
20260830135004 85 102 3.0 6.0 0.00 0.05 0.00 78 1016.8
20260830134503 85 100 3.0 6.0 0.00 0.05 0.00 79 1016.7
20260830134004 85 107 3.0 6.0 0.00 0.05 0.00 78 1016.7
20260830133503 84 107 3.0 7.0 0.00 0.05 0.00 80 1016.5
20260830133003 84 93 2.0 7.0 0.00 0.05 0.00 81 1016.4
20260830132503 83 81 2.0 5.0 0.00 0.05 0.00 82 1016.3
20260830132004 83 79 2.0 5.0 0.00 0.05 0.00 83 1016.3
20260830131503 82 75 2.0 6.0 0.00 0.05 0.00 84 1016.3
20260830131004 81 66 3.0 6.0 0.00 0.05 0.00 85 1016.3
20260830130503 80 60 2.0 5.0 0.00 0.05 0.00 86 1016.3
20260830130004 80 68 2.0 5.0 0.00 0.05 0.00 87 1016.3
20260830125504 79 75 2.0 5.0 0.00 0.05 0.00 87 1016.3
20260830125004 79 72 2.0 5.0 0.00 0.05 0.00 88 1016.3
20260830124503 78 75 2.0 5.0 0.00 0.05 0.00 89 1016.3
20260830124003 77 77 2.0 5.0 0.00 0.05 0.00 89 1016.2
20260830123504 77 79 2.0 5.0 0.00 0.05 0.00 89 1016.2
20260830123024 76 87 2.0 5.0 0.00 0.05 0.00 90 1016.3
20260830122503 76 83 2.0 5.0 0.00 0.05 0.00 90 1016.3
20260830122004 75 71 2.0 5.0 0.00 0.05 0.00 90 1016.1
20260830121503 75 74 2.0 5.0 0.00 0.05 0.00 90 1016.1
20260830121004 75 88 2.0 4.0 0.00 0.05 0.00 90 1016.1
20260830120503 74 100 1.0 4.0 0.00 0.05 0.00 90 1016.1
20260830120005 74 92 1.0 3.0 0.00 0.05 0.00 90 1016.0
20260830115503 74 71 1.0 3.0 0.00 0.05 0.00 90 1016.0
20260830115005 74 79 1.0 3.0 0.00 0.05 0.00 90 1015.8
20260830114503 74 85 1.0 3.0 0.00 0.05 0.00 90 1015.8
20260830114025 73 78 0.0 3.0 0.00 0.05 0.00 90 1015.8
20260830113503 73 78 0.0 2.0 0.00 0.05 0.00 89 1015.7
20260830113004 73 78 0.0 1.0 0.00 0.05 0.00 89 1015.6
20260830112503 73 78 0.0 3.0 0.00 0.05 0.00 89 1015.4
20260830112003 73 74 1.0 4.0 0.00 0.05 0.00 89 1015.4
20260830111503 73 81 1.0 4.0 0.00 0.05 0.00 89 1015.5
20260830111003 73 85 1.0 3.0 0.00 0.05 0.00 89 1015.5
20260830110503 73 84 1.0 4.0 0.00 0.05 0.00 89 1015.5
20260830110004 73 88 1.0 4.0 0.00 0.05 0.00 89 1015.5
20260830105504 73 88 1.0 3.0 0.00 0.05 0.00 89 1015.3
20260830105004 73 88 0.0 2.0 0.00 0.05 0.00 89 1015.4
20260830104504 73 88 0.0 2.0 0.00 0.05 0.00 89 1015.3
20260830104025 73 88 1.0 2.0 0.00 0.05 0.00 89 1015.2
20260830103503 73 88 1.0 3.0 0.00 0.05 0.00 89 1015.0
20260830103003 73 88 1.0 3.0 0.00 0.05 0.00 89 1014.9
20260830102504 73 88 1.0 3.0 0.00 0.05 0.00 89 1014.8
20260830102003 73 88 0.0 3.0 0.00 0.05 0.00 89 1014.8
20260830101503 73 88 0.0 1.0 0.00 0.05 0.00 89 1014.8
20260830101004 73 88 0.0 2.0 0.00 0.05 0.00 89 1014.8
20260830100503 73 88 0.0 2.0 0.00 0.05 0.00 89 1014.7
20260830100004 73 88 1.0 2.0 0.00 0.05 0.00 89 1014.7
20260830095504 73 88 1.0 3.0 0.00 0.05 0.00 89 1014.6
20260830095003 73 88 1.0 3.0 0.00 0.05 0.00 89 1014.6
20260830094503 73 88 1.0 3.0 0.00 0.05 0.00 89 1014.6
20260830094004 73 88 0.0 2.0 0.00 0.05 0.00 89 1014.5
20260830093503 73 88 0.0 1.0 0.00 0.05 0.00 89 1014.7
20260830093003 73 88 0.0 2.0 0.00 0.05 0.00 89 1014.6
20260830092503 73 88 0.0 2.0 0.00 0.05 0.00 89 1014.5
20260830092003 73 88 0.0 2.0 0.00 0.05 0.00 89 1014.4
20260830091503 73 0 0.0 0.0 0.00 0.05 0.00 89 1014.4
20260830091004 73 88 0.0 2.0 0.00 0.05 0.00 89 1014.4
20260830090503 73 88 0.0 3.0 0.00 0.05 0.00 89 1014.6
20260830090004 73 88 1.0 3.0 0.00 0.05 0.00 89 1014.7
20260830085524 73 81 1.0 3.0 0.00 0.05 0.00 89 1014.8
20260830085004 73 83 1.0 3.0 0.00 0.05 0.00 89 1014.7
20260830084503 73 101 1.0 3.0 0.00 0.05 0.00 89 1014.7
20260830084003 73 86 1.0 3.0 0.00 0.05 0.00 89 1014.8
20260830083525 73 66 1.0 3.0 0.00 0.05 0.00 89 1014.7
20260830083004 73 67 1.0 4.0 0.00 0.05 0.00 89 1014.8
20260830082504 73 76 1.0 4.0 0.00 0.05 0.00 89 1014.8
20260830082003 73 74 1.0 4.0 0.00 0.05 0.00 89 1014.8
20260830081504 73 69 1.0 4.0 0.00 0.05 0.00 89 1014.8
20260830081004 73 70 1.0 4.0 0.00 0.05 0.00 89 1014.8
20260830080504 73 70 1.0 3.0 0.00 0.05 0.00 89 1014.8
20260830080004 73 59 0.0 2.0 0.00 0.05 0.00 88 1014.8
20260830075504 73 60 1.0 3.0 0.00 0.05 0.00 88 1014.8
20260830075004 73 63 1.0 3.0 0.00 0.05 0.00 89 1014.9
20260830074503 73 66 1.0 4.0 0.00 0.05 0.00 88 1014.8
20260830074025 73 71 2.0 4.0 0.00 0.05 0.00 88 1014.8
20260830073503 73 72 1.0 4.0 0.00 0.05 0.00 88 1014.9
20260830073004 73 78 1.0 4.0 0.00 0.05 0.00 89 1015.1
20260830072504 73 85 2.0 4.0 0.00 0.05 0.00 89 1015.1
20260830072003 73 90 2.0 5.0 0.00 0.05 0.00 89 1015.2
20260830071503 73 91 2.0 5.0 0.00 0.05 0.00 89 1015.3
20260830071003 73 94 2.0 6.0 0.00 0.05 0.00 89 1015.3
20260830070504 73 95 2.0 6.0 0.00 0.05 0.00 89 1015.4
20260830070004 73 89 2.0 6.0 0.00 0.05 0.00 89 1015.5
20260830065524 73 86 2.0 6.0 0.00 0.05 0.00 89 1015.5
20260830065004 74 82 2.0 5.0 0.00 0.05 0.00 89 1015.6
20260830064503 74 76 2.0 5.0 0.00 0.05 0.00 89 1015.7
20260830064003 74 72 2.0 5.0 0.00 0.05 0.00 88 1015.7
20260830063503 74 79 2.0 4.0 0.00 0.05 0.00 88 1015.6
20260830063004 74 82 1.0 4.0 0.00 0.05 0.00 88 1015.7
20260830062504 74 85 1.0 3.0 0.00 0.05 0.00 88 1015.7
20260830062003 74 93 1.0 4.0 0.00 0.05 0.00 88 1015.6
20260830061524 74 98 1.0 4.0 0.00 0.05 0.00 88 1015.6
20260830061003 74 82 1.0 4.0 0.00 0.05 0.00 88 1015.7
20260830060503 74 57 1.0 4.0 0.00 0.05 0.00 88 1015.7
20260830060025 74 53 1.0 3.0 0.00 0.05 0.00 88 1015.7
20260830055503 74 54 2.0 3.0 0.00 0.05 0.00 88 1015.8
20260830055004 74 54 1.0 4.0 0.00 0.05 0.00 88 1015.8
20260830054503 74 75 2.0 5.0 0.00 0.05 0.00 88 1015.8
20260830054004 74 91 2.0 5.0 0.00 0.05 0.00 88 1015.8
20260830053504 74 89 2.0 5.0 0.00 0.05 0.00 88 1015.8
20260830053004 74 84 2.0 4.0 0.00 0.05 0.00 88 1015.9
20260830052503 74 80 2.0 4.0 0.00 0.05 0.00 88 1016.0
20260830052004 74 80 2.0 5.0 0.00 0.05 0.00 88 1016.0
20260830051524 74 81 2.0 6.0 0.00 0.05 0.00 88 1016.1
20260830051004 74 88 2.0 6.0 0.00 0.05 0.00 88 1016.1
20260830050503 74 96 2.0 6.0 0.00 0.05 0.00 88 1016.1
20260830050004 74 98 1.0 4.0 0.00 0.05 0.00 88 1016.2
20260830045524 74 99 1.0 3.0 0.00 0.05 0.00 88 1016.1
20260830045004 74 99 1.0 4.0 0.00 0.05 0.00 88 1016.0
20260830044503 74 100 0.0 4.0 0.00 0.05 0.00 88 1015.9
20260830044003 74 82 1.0 3.0 0.00 0.05 0.00 88 1015.9
20260830043504 74 74 2.0 4.0 0.00 0.05 0.00 88 1015.9
20260830043025 74 74 1.0 4.0 0.00 0.05 0.00 88 1016.0
20260830042503 74 73 1.0 5.0 0.00 0.05 0.00 88 1016.1
20260830042004 74 71 2.0 5.0 0.00 0.05 0.00 88 1016.2
20260830041504 74 79 2.0 5.0 0.00 0.05 0.00 88 1016.2
20260830041003 75 87 1.0 5.0 0.00 0.05 0.00 88 1016.2
20260830040525 75 91 2.0 5.0 0.00 0.05 0.00 88 1016.2
20260830040004 75 85 2.0 5.0 0.00 0.05 0.00 88 1016.3
20260830035525 75 73 2.0 5.0 0.00 0.05 0.05 88 1016.3
20260830035024 75 70 2.0 4.0 0.00 0.05 0.05 88 1016.3
20260830034503 75 71 3.0 6.0 0.00 0.05 0.05 88 1016.4
20260830034003 75 68 3.0 6.0 0.00 0.05 0.05 88 1016.3
20260830033504 75 73 2.0 4.0 0.00 0.05 0.05 88 1016.4
20260830033003 75 82 1.0 4.0 0.00 0.05 0.05 88 1016.6
20260830032504 75 79 1.0 4.0 0.00 0.05 0.05 88 1016.5
20260830032003 75 98 2.0 5.0 0.00 0.05 0.05 88 1016.4
20260830031504 75 95 2.0 5.0 0.00 0.05 0.05 88 1016.4
20260830031003 75 82 2.0 4.0 0.00 0.05 0.05 88 1016.3
20260830030525 75 95 2.0 5.0 0.00 0.05 0.05 88 1016.3
20260830030004 75 97 3.0 6.0 0.00 0.05 0.05 88 1016.0
20260830025504 75 86 2.0 6.0 0.00 0.05 0.05 88 1016.0
20260830025003 75 78 2.0 5.0 0.00 0.05 0.05 88 1016.1
20260830024504 75 79 2.0 9.0 0.00 0.05 0.05 88 1016.2
20260830024003 75 81 3.0 9.0 0.00 0.05 0.05 88 1016.3
20260830023524 75 87 3.0 7.0 0.00 0.05 0.05 88 1016.3
20260830023004 75 88 2.0 5.0 0.00 0.05 0.05 88 1016.3
20260830022504 75 75 2.0 6.0 0.00 0.05 0.05 88 1016.4
20260830022024 75 67 2.0 6.0 0.00 0.05 0.05 88 1016.4
20260830021524 75 68 2.0 5.0 0.00 0.05 0.05 88 1016.3
20260830021004 75 99 2.0 5.0 0.00 0.05 0.05 88 1016.3
20260830020504 74 108 2.0 6.0 0.00 0.05 0.05 88 1016.3
20260830020004 74 96 2.0 6.0 0.00 0.05 0.05 88 1016.2
20260830015525 75 92 2.0 6.0 0.00 0.05 0.05 88 1016.1
20260830015004 75 106 2.0 5.0 0.00 0.05 0.05 88 1016.0
20260830014503 75 98 2.0 6.0 0.00 0.05 0.05 88 1015.9
20260830014004 75 78 2.0 6.0 0.00 0.05 0.05 88 1015.9
20260830013503 75 80 2.0 6.0 0.00 0.05 0.05 89 1015.8